Regional Weather Roundup
Issued by NWS State College, PA

Home | Current Version | Previous Version | Graphics & Text | Print | Product List | Glossary Off
Versions: 1 2 3 4 5 6 7 8 9 10 11 12 13 14 15 16 17 18 19 20 21 22 23 24 25 26 27 28 29 30 31 32 33 34 35 36 37 38 39 40 41 42 43 44 45 46 47 48 49 50

000
ASUS41 KCTP 240003
RWRCTP

REGIONAL WEATHER ROUNDUP
NATIONAL WEATHER SERVICE STATE COLLEGE PA
700 PM EST MON JAN 23 2017

Note: "fair" indicates few or no clouds below 12,000 feet with no
significant weather and/or obstructions to visibility.

* = STATION THAT DOES NOT REPORT PRECIPITATION /E.G. RAIN...SNOW...ETC/
    THUNDER OR FOG.

PAZ002>004-007>009-013>016-020>023-029>032-240100-
WESTERN PENNSYLVANIA

CITY           SKY/WX    TMP DP  RH WIND       PRES   REMARKS
ERIE           LGT RAIN  40  37  89 NE17      29.66S
MEADVILLE      LGT RAIN  43  38  82 E9        29.61S
FRANKLIN*        N/A     37  34  87 E9        29.62S
NEW CASTLE     LGT RAIN  40  38  93 E7        29.62R
BEAVER COUNTY  RAIN      36  36 100 E3        29.56R
BUTLER*        CLOUDY    34  30  86 NE5       29.63R
PITTSBURGH INT LGT SNOW  33  33 100 NE8       29.59S FOG
PITTSBURGH     LGT SNOW  34  31  88 N8        29.57S FOG
INDIANA*       CLOUDY    34  34 100 E7        29.61S FOG
LATROBE        CLOUDY    32  32 100 NE7       29.58S FOG
WASHINGTON CO* CLOUDY    36  34  93 NE8       29.57S
$$

PAZ004>006-010>012-017>019-024>028-033>037-041-042-045-046-049>053-240100-
CENTRAL PENNSYLVANIA

CITY           SKY/WX    TMP DP  RH WIND       PRES   REMARKS
BRADFORD       LGT RAIN  35  34  96 NE3       29.62F
DUBOIS         LGT RAIN  34  31  88 NE12      29.59S FOG
CLEARFIELD     RAIN      34  33  96 NE8       29.60F
JOHNSTOWN      CLOUDY    31  31 100 E10G20    29.52S FOG
ALTOONA        LGT SNOW  34  34 100 NE13G20   29.58S FOG
STATE COLLEGE  LGT SNOW  32  32 100 NE9       29.62F
WILLIAMSPORT   CLOUDY    36  33  89 W6        29.66F
SELINSGROVE    LGT RAIN  34  32  92 N7        29.64F
FT INDIANTOWN  LGT RAIN  34  34 100 NE9       29.60F
CAPITAL CITY   LGT RAIN  37  32  82 NE13      29.60F
HARRISBURG     LGT RAIN  37  34  89 NE10G17   29.59F FOG
YORK           CLOUDY    36  35  96 N12       29.57S
$$

PAZ038>040-043-044-047-048-054-055-060>062-067>071-240100-
EASTERN PENNSYLVANIA

CITY           SKY/WX    TMP DP  RH WIND       PRES   REMARKS
SCRANTON       RAIN      34  31  88 NE12      29.65R FOG
MOUNT POCONO   FRZ RAIN  31  28  89 E21G31    29.59S
ALLENTOWN      LGT RAIN  36  31  82 NE20G30   29.61R
QUAKERTOWN*    CLOUDY    36  32  87 NE10G18   29.59F
READING        LGT RAIN  36  35  96 NE9       29.60R FOG
LANCASTER      CLOUDY    37  35  92 NE15      29.57F
COATESVILLE    CLOUDY    36  34  93 NE12G22   29.54F
POTTSTOWN      LGT RAIN  36  35  96 E10G23    29.60R
BLUE BELL      CLOUDY    36  34  93 NE16G25   29.56F
DOYLESTOWN       N/A    N/A N/A N/A MISG      29.58R
WILLOW GROVE   NOT AVBL
NORTH PHILA    CLOUDY    39  50 100 NE26G37   29.59R
PHILADELPHIA   CLOUDY    39  35  86 NE23G30   29.56F
$$



USA.gov is the U.S. government's official web portal to all federal, state and local government web resources and services.